Hourly Data Report for October 21, 2013

All times are specified in Local Standard Time (LST). Add 1 hour to adjust for Daylight Saving Time where and when it is observed.

RANKIN INLET A
NUNAVUT

62°48'38.000" N
92°06'53.000" W
32.30 m
2303405
71083
YRT

Download Data

Hourly Data (October 2013)
Hourly Data Report for October 21, 2013
Temp Definition
°C
Dew Point Temp Definition
°C
Rel Hum Definition
%
Wind Dir Definition
10's deg

Wind Spd Definition
km/h
Visibility Definition
km
Stn Press Definition
kPa
Hmdx Definition


Wind Chill Definition


Weather Definition


TIME
00:00 Legend Double Dagger -8.1 -9.6 89 35 28 24.1 101.45   -17 Mainly Clear
01:00 Legend Double Dagger -6.8 -8.2 90 1 31 24.1 101.43   -15 LegendNANA
02:00 Legend Double Dagger -6.7 -8.1 90 1 24 24.1 101.41   -14 LegendNANA
03:00 Legend Double Dagger -5.6 -7.1 89 1 26 24.1 101.39   -13 Mainly Clear
04:00 Legend Double Dagger -4.0 -6.0 86 2 34 24.1 101.37   -12 LegendNANA
05:00 Legend Double Dagger -4.1 -6.0 87 3 30 24.1 101.37   -12 LegendNANA
06:00 Legend Double Dagger -4.4 -6.1 88 2 29 24.1 101.32   -12 Mostly Cloudy
07:00 Legend Double Dagger -4.3 -5.9 89 2 33 24.1 101.32   -12 LegendNANA
08:00 Legend Double Dagger -4.7 -6.4 88 2 28 24.1 101.30   -12 LegendNANA
09:00 Legend Double Dagger -4.7 -6.2 89 2 27 24.1 101.29   -12 Cloudy
10:00 Legend Double Dagger -4.3 -6.0 88 2 27 24.1 101.29   -12 Snow
11:00 Legend Double Dagger -4.1 -5.8 88 2 28 16.1 101.25   -12 Snow,Blowing Snow
12:00 Legend Double Dagger -3.3 -5.0 88 2 24 16.1 101.23   -10 Snow,Blowing Snow
13:00 Legend Double Dagger -3.3 -5.0 88 1 27 24.1 101.22   -10 Snow,Blowing Snow
14:00 Legend Double Dagger -3.2 -4.9 88 1 30 24.1 101.23   -11 Snow
15:00 Legend Double Dagger -3.0 -4.6 89 2 32 24.1 101.23   -11 Snow
16:00 Legend Double Dagger -3.4 -4.7 91 1 31 24.1 101.23   -11 Snow
17:00 Legend Double Dagger -2.8 -4.1 91 1 28 24.1 101.24   -10 Snow
18:00 Legend Double Dagger -2.9 -4.3 90 1 26 24.1 101.23   -10 Snow,Blowing Snow
19:00 Legend Double Dagger -3.0 -4.4 90 36 27 24.1 101.22   -10 Snow,Blowing Snow
20:00 Legend Double Dagger -2.7 -4.0 91 1 26 19.3 101.20   -10 Snow,Blowing Snow
21:00 Legend Double Dagger -2.6 -3.7 92 1 26 24.1 101.20   -9 Snow,Blowing Snow
22:00 Legend Double Dagger -2.5 -3.5 93 36 28 24.1 101.16   -10 Snow,Blowing Snow
23:00 Legend Double Dagger -2.6 -3.6 93 1 32 24.1 101.15   -10 Snow,Blowing Snow

Notes on Data Quality.

Legend

  • E = Estimated
  • M = Missing
  • NA = Not Available
  • ‡ = Partner data that is not subject to review by the National Climate Archives
Date modified: